SCP
0 0 0 0 0 0 0 0 0 0 0 0 0 0 0 0 0 0 0 0 0 0 0 0 0 0 0 0 0 0 0 0 0 0 0 0 0 0
0 0 0 0 0 0 0 0 0 0 0 0 0 0 0 0 0 0 0 0 0 0 0 0 0 0 0 0 0 0 0 0 0 0 0 0 0 0
0 0 0 0 0 0 0 0 0 0 0 0 0 0 0 0 0 0 0 0 0 0 0 0 0 0 0 0 0 0 0 0 0 0 0 0 0 0
0 0 0 0 0 0 0 0 0 0 0 0 0 0 0 0 0 0 0 0 0 0 0 0 0 0 0 0 0 0 0 0 0 0 0 0 0 0
0 0 0 0 0 0 0 0 0 0 0 0 0 0 0 0 0 0 0 0 0 0 0 0 0 0 0 0 0 0 0 0 0 0 0 0 0 0
0 0 0 0 0 0 0 0 0 0 0 0 0 0 0 0 0 0 0 0 0 0 0 0 0 0 0 0 0 0 0 0 0 0 0 0 0 0
0 0 0 0 0 0 0 0 0 0 0 0 0 0 0 0 0 0 0 0 0 0 0 0 0 0 0 0 0 0 0 0 0 0 0 0 0 0
0 0 0 0 0 0 0 0 0 0 0 0 0 0 0 0 0 0 0 0 0 0 0 0 0 0 0 0 0 0 0 0 0 0 0 0 0 0
0 0 0 0 0 0 0 0 0 0 0 0 0 0 0 0 0 0 0 0 0 0 0 0 0 0 0 0 0 0 0 0 0 0 0 0 0 0
0 0 0 0 0 0 0 0 0 0 0 0 0 0 0 0 0 0 0 0 0 0 0 0 0 0 0 0 0 0 0 0 0 0 0 0 0 0
0 0 0 0 0 0 0 0 0 0 0 0 0 0 0 0 0 0 0 0 0 0 0 0 0 0 0 0 0 0 0 0 0 0 0 0 0 0
0 0 0 0 0 0 0 0 0 0 0 0 0 0 0 0 0 0 0 0 0 0 0 0 0 0 0 0 0 0 0 0 0 0 0 0 0 0
0 0 0 0 0 0 0 0 0 0 0 0 0 0 0 0 0 0 0 0 0 0 0 0 0 0 0 0 0 0 0 0 0 0 0 0 0 0
0 0 0 0 0 0 0 0 0 0 0 0 0 0 0 0 0 0 0 0 0 0 0 0 0 0 0 0 0 0 0 0 0 0 0 0 0 0
0 0 0 0 0 0 0 0 0 0 0 0 0 0 0 0 0 0 0 0 0 0 0 0 0 0 0 0 0 0 0 0 0 0 0 0 0 0
0 0 0 0 0 0 0 0 0 0 0 0 0 0 0 0 0 0 0 0 0 0 0 0 0 0 0 0 0 0 0 0 0 0 0 0 0 0
0 0 0 0 0 0 0 0 0 0 0 0 0 0 0 0 0 0 0 0 0 0 0 0 0 0 0 0 0 0 0 0 0 0 0 0 0 0
0 0 0 0 0 0 0 0 0 0 0 0 0 0 0 0 0 0 0 0 0 0 0 0 0 0 0 0 0 0 0 0 0 0 0 0 0 0
0 0 0 0 0 0 0 0 0 0 0 0 0 0 0 0 0 0 0 0 0 0 0 0 0 0 0 0 0 0 0 0 0 0 0 0 0 0
0 0 0 0 0 0 0 0 0 0 0 0 0 0 0 0 0 0 0 0 0 0 0 0 0 0 0 0 0 0 0 0 0 0 0 0 0 0
0 0 0 0 0 0 0 0 0 0 0 0 0 0 0 0 0 0 0 0 0 0 0 0 0 0 0 0 0 0 0 0 0 0 0 0 0 0
0 0 0 0 0 0 0 0 0 0 0 0 0 0 0 0 0 0 0 0 0 0 0 0 0 0 0 0 0 0 0 0 0 0 0 0 0 0
0 0 0 0 0 0 0 0 0 0 0 0 0 0 0 0 0 0 0 0 0 0 0 0 0 0 0 0 0 0 0 0 0 0 0 0 0 0
Wind_Speed
5 5 4 3 2 2 3 3 3 4 4 4 3 4 3 3 4 5 5 5 6 6 6 5 4 3 4 5 5 6 6 6 6 7 8 9 10 10
4 6 5 3 3 2 3 3 3 4 3 2 3 2 3 3 4 5 4 5 6 7 6 6 5 5 5 5 6 6 6 6 7 8 9 10 10 11
5 6 5 4 3 3 3 3 3 3 3 2 2 2 4 4 4 4 4 5 4 6 7 7 7 6 6 6 7 7 7 7 8 9 9 10 10 11
5 6 5 4 5 4 4 4 4 4 4 4 2 2 4 4 4 4 3 3 4 5 7 8 8 7 7 7 7 7 7 7 8 9 9 10 10 11
5 5 5 5 5 4 5 4 3 3 3 3 3 2 2 2 3 3 3 3 3 4 7 8 8 8 7 7 7 7 6 7 7 8 9 9 10 11
4 5 5 6 6 5 4 4 4 3 3 3 3 2 2 2 2 3 3 3 3 3 4 5 6 7 7 7 6 6 6 6 7 8 8 9 10 11
4 5 5 5 5 5 4 5 4 4 4 4 3 3 3 3 3 3 3 3 3 3 3 3 3 4 5 6 6 6 6 6 7 7 8 9 10 11
5 4 4 5 5 6 6 6 5 5 5 4 4 5 5 4 3 3 3 3 3 2 3 3 2 3 3 3 4 5 6 6 6 7 8 9 10 11
4 4 3 3 5 5 5 5 5 6 7 6 6 6 5 5 5 5 5 4 3 1 2 3 2 3 2 2 4 5 5 5 6 7 8 9 10 11
4 5 5 5 5 5 4 5 5 6 6 6 6 5 5 4 5 5 4 3 1 1 2 3 2 2 2 2 4 5 5 5 6 7 8 9 10 11
4 4 5 5 5 6 5 5 4 4 3 5 5 4 5 5 5 3 3 3 3 2 2 2 2 2 2 3 2 4 5 6 7 8 9 10 10 10
2 3 5 5 6 7 6 5 5 4 3 3 3 4 4 5 6 5 4 4 2 2 3 2 2 1 2 2 2 2 3 5 7 8 9 9 9 7
2 2 3 5 6 7 6 5 5 4 3 3 3 3 2 3 3 3 3 3 4 3 2 3 2 1 2 2 2 3 3 3 4 5 7 8 9 8
2 2 2 4 5 5 5 4 5 4 3 3 3 3 3 3 2 2 2 1 1 2 2 2 2 2 2 3 3 2 3 4 4 4 4 6 8 9
1 1 2 2 3 3 3 4 4 3 3 3 3 3 2 2 2 1 1 1 1 0 1 2 2 2 3 3 3 3 3 3 3 4 4 4 5 5
0 0 1 1 1 1 1 2 2 2 3 3 2 2 1 2 2 2 2 2 1 1 1 1 2 3 3 4 4 4 4 4 3 4 4 5 5 5
1 0 0 0 0 0 0 1 1 1 2 2 2 2 2 2 2 2 2 2 2 2 1 1 1 2 3 4 4 5 4 4 4 4 4 5 5 5
1 0 0 1 1 1 1 1 1 1 1 2 2 2 2 2 2 2 3 3 3 3 2 2 1 1 2 3 6 5 4 4 4 4 4 5 6 5
0 1 1 1 1 2 2 1 1 1 1 1 2 2 2 2 3 3 3 3 3 3 2 2 2 3 3 3 2 5 4 3 4 4 4 5 6 6
1 1 1 1 1 1 1 1 1 1 1 1 2 2 2 3 3 3 3 4 3 3 3 3 3 4 4 3 3 3 5 5 4 5 5 5 6 7
1 1 1 1 1 1 2 1 2 2 2 2 2 2 3 3 3 3 3 4 4 3 4 3 2 2 1 2 3 4 3 4 5 5 5 5 5 5
1 1 2 2 2 2 2 2 2 2 2 2 2 2 3 3 3 4 3 4 3 3 3 2 2 2 3 4 4 4 4 3 4 7 8 7 5 4
2 2 2 2 2 2 2 2 3 2 2 2 3 3 3 3 3 3 3 3 3 3 3 2 2 2 3 3 4 4 5 5 4 4 4 6 9 11
Wind_Direction
201 202 208 202 203 200 199 209 212 227 231 216 210 211 219 222 201 214 221 208 220 231 242 249 250 238 245 254 262 270 278 284 285 284 284 282 282 285
197 203 208 204 203 203 206 215 230 240 242 217 221 214 211 225 211 226 229 211 221 229 236 240 237 235 238 249 258 264 270 274 279 283 283 284 284 285
199 206 208 205 206 204 208 214 223 231 237 244 231 220 221 225 217 224 228 227 220 222 234 241 238 237 238 246 254 260 264 270 274 279 283 285 288 290
202 205 207 203 210 210 209 213 220 224 225 233 233 226 232 230 233 221 226 234 237 223 234 240 238 239 241 247 251 255 259 266 273 277 281 283 287 290
208 209 208 206 211 213 214 213 216 219 225 223 231 240 245 230 236 235 237 242 245 236 234 235 237 239 242 246 247 249 255 263 270 277 283 287 290 292
215 215 214 214 213 209 213 215 212 209 210 214 220 227 230 230 230 231 234 237 249 242 234 232 234 234 235 240 244 245 253 261 268 275 283 288 291 292
216 217 219 219 220 218 213 211 210 212 210 213 219 221 217 216 220 219 236 240 254 243 242 231 227 231 226 226 232 239 249 259 268 275 282 287 290 292
215 215 211 209 210 217 223 225 225 223 217 218 227 229 229 229 222 219 229 235 246 209 239 252 239 241 237 235 232 243 248 258 269 277 284 288 292 293
215 215 214 213 215 215 215 221 233 240 237 233 232 235 236 227 218 220 225 230 245 203 221 246 239 256 259 245 238 247 253 264 276 285 289 292 294 294
217 218 216 215 215 213 215 224 231 233 234 236 241 245 247 234 223 224 227 229 250 222 224 243 248 260 265 250 229 244 254 267 275 284 289 293 296 296
220 219 218 221 210 209 217 225 231 237 232 233 245 247 242 234 220 197 188 198 226 216 218 242 249 274 273 257 225 236 258 268 273 281 288 291 293 296
217 221 222 225 214 213 224 225 227 229 222 222 226 227 229 217 208 212 202 203 215 220 192 211 226 259 268 247 252 250 256 263 273 281 287 288 294 297
221 227 220 212 223 226 232 233 229 230 231 229 228 224 220 209 207 217 216 209 213 225 184 186 205 231 249 271 268 263 269 277 279 280 279 283 290 294
237 241 230 212 227 231 232 223 217 223 224 221 223 222 218 212 205 204 207 228 249 238 199 195 203 215 230 258 266 267 274 279 282 285 287 285 285 286
259 240 247 227 229 224 209 214 218 218 211 216 221 225 219 206 188 170 160 148 93 63 197 230 220 215 231 246 261 269 284 280 274 281 290 292 292 292
26 124 174 209 200 196 202 215 228 228 223 225 227 216 183 172 184 182 184 177 193 191 153 210 228 224 239 246 251 260 264 269 271 282 292 290 286 282
333 13 32 7 215 201 226 238 228 219 225 220 206 197 190 187 186 179 190 198 217 217 209 200 223 245 252 250 251 254 263 269 272 284 292 291 286 282
12 157 249 256 249 236 230 231 236 232 227 214 208 204 198 194 192 189 198 208 216 220 217 207 203 231 250 246 230 250 260 273 282 283 282 286 290 292
323 245 251 252 260 249 244 245 250 246 233 217 213 208 200 198 201 204 205 209 218 222 220 214 217 224 248 269 234 215 249 273 282 284 282 284 288 295
318 294 285 282 282 272 257 256 255 248 234 229 221 213 209 209 212 213 210 211 217 224 228 225 227 229 242 271 280 265 239 257 274 285 294 293 287 287
317 313 307 298 291 281 265 256 253 251 244 237 230 220 215 214 217 217 216 211 220 226 232 238 233 229 256 256 262 267 266 246 259 272 289 293 294 293
322 318 314 306 298 290 271 260 252 247 240 236 235 228 223 220 219 218 217 216 221 230 241 242 201 211 228 239 258 277 288 294 270 264 264 263 277 287
313 309 307 304 299 294 276 261 256 252 247 240 237 232 223 221 222 222 223 221 223 224 229 234 233 235 238 243 259 272 280 287 292 292 278 269 268 272